Weather observations for the past three days for
Columbia - Jim Hamilton L.B. Owens Airport
Imperial (Metric)
Date Time (edt) Wind (mph) Vis. (mi.) Weather Sky Cond. Temperature (ºF) Relative Humidity Wind Chill (°F) Heat Index (°F) Pressure Precipitation (in)
Air Dwpt 6 hour altimeter (in) sea level (mb) 1 hr 3 hr 6 hr
Max. Min.
15 22:53 Calm 10.00 Fair CLR 79 73 82% 82 30 1015.4 0.19
15 21:53 S 6 10.00 A Few Clouds FEW065 FEW080 FEW095 78.1 75 90% 81 30 1015.4 0.01
15 20:53 Calm 9.00 Thunderstorm NULL 77 73 88% 78 29.99 1015.4 0.18
15 19:53 SW 3 8.00 Thunderstorm SCT039 BKN055 OVC095 81 78.1 100 80.1 91% 89 29.99 1015.3 0.32 0.33
15 18:53 Vrbl 7 G 18 10.00 Partly Cloudy SCT070 90 70 52% 95 29.94 1013.6
15 17:53 S 8 10.00 Fair CLR 91.9 71.1 51% 99 29.95 1013.7
15 16:53 S 8 10.00 Fair CLR 91 70 50% 97 29.94 1013.5 0.01
15 14:53 S 12 G 24 7.00 Thunderstorm in Vicinity Light Rain FEW018 BKN075 BKN100 82.9 71.1 67% 88 29.98 1014.8 0.01
15 13:53 SW 5 10.00 Fair CLR 98.1 66.9 99 80.1 36% 103 29.99 1015.4
15 12:53 Vrbl 5 10.00 Fair CLR 96.1 71.1 44% 104 30.02 1016.3
15 11:53 Vrbl 6 10.00 Fair CLR 91.9 73 54% 101 30.04 1016.8
15 10:53 SW 3 10.00 Fair CLR 90 73 58% 98 30.05 1017.4
15 09:53 SW 5 10.00 Fair CLR 87.1 73 63% 95 30.06 1017.8
15 08:53 Calm 10.00 Fair CLR 82.9 73.9 74% 89 30.06 1017.6
15 07:53 Calm 9.00 Fair CLR 80.1 73 82 78.1 79% 84 30.05 1017.3
15 06:53 Calm 10.00 Fair CLR 79 72 79% 82 30.03 1016.6
15 05:53 Calm 10.00 Fair CLR 79 72 79% 82 30.02 1016.3
15 04:53 SW 3 10.00 Fair CLR 81 72 74% 85 30.01 1015.8
15 03:53 Calm 10.00 Fair CLR 81 72 74% 85 30 1015.7
15 02:53 Vrbl 3 10.00 Fair CLR 81 71.1 72% 85 30.03 1016.4
15 01:53 SW 5 10.00 Fair CLR 82 70 93 80.1 67% 86 30.05 1017.1
15 00:53 SW 5 10.00 Fair CLR 82 71.1 69% 86 30.06 1017.7
14 23:53 S 6 10.00 Fair CLR 82.9 72 70% 88 30.06 1017.7
14 22:53 SE 6 10.00 Partly Cloudy SCT075 84.9 71.1 63% 90 30.06 1017.6
14 21:53 Vrbl 3 10.00 Partly Cloudy SCT075 87.1 70 57% 92 30.04 1016.9
14 20:53 Calm 10.00 Fair CLR 91 70 50% 97 30.03 1016.6
14 19:53 Calm 10.00 A Few Clouds FEW080 93 70 100 93 47% 99 30.02 1016.3
14 18:53 S 8 10.00 Fair CLR 96.1 66.9 39% 100 30.01 1015.8
14 17:53 SW 6 10.00 Fair CLR 98.1 66 35% 102 30 1015.5
14 16:53 SW 9 10.00 Fair CLR 99 66 34% 103 30.02 1016.3
14 15:53 S 9 10.00 Fair CLR 99 66.9 35% 104 30.04 1016.8
14 14:53 Calm 10.00 Fair CLR 99 66 34% 103 30.06 1017.6
14 13:53 SW 8 10.00 Fair CLR 98.1 66 98.1 79 35% 102 30.08 1018.4
14 12:53 Calm 10.00 Fair CLR 96.1 66.9 39% 100 30.1 1019.1
14 11:53 Vrbl 3 10.00 Fair CLR 95 70 44% 101 30.12 1019.7
14 10:53 Vrbl 3 10.00 Fair CLR 91.9 73 54% 101 30.13 1019.8
14 09:53 Calm 10.00 Fair CLR 87.1 73 63% 95 30.14 1020.3
14 08:53 Calm 10.00 Fair CLR 82.9 73.9 74% 89 30.14 1020.4
14 07:53 Calm 10.00 Fair CLR 79 73 79 75 82% 82 30.14 1020.3
14 06:53 Calm 9.00 Fair CLR 75.9 73 91% 76 30.12 1019.7
14 05:53 Calm 10.00 Fair CLR 75.9 72 88% 76 30.12 1019.6
14 03:53 Calm 10.00 Fair CLR 77 73 88% 78 30.11 1019.4
14 02:53 Calm 10.00 Fair CLR 78.1 73 85% 81 30.13 1019.8
14 01:53 Calm 10.00 Fair CLR 79 73 91 79 82% 82 30.14 1020.3
14 00:53 Calm 10.00 Fair CLR 80.1 73 79% 84 30.14 1020.5
13 23:53 Calm 10.00 Fair CLR 81 73 77% 86 30.15 1020.7
13 22:53 S 6 10.00 Fair CLR 82 73 74% 87 30.16 1021.1
13 21:53 SE 5 10.00 Fair CLR 82.9 73 72% 89 30.16 1020.8
13 20:53 SE 5 10.00 A Few Clouds FEW080 84.9 73 68% 92 30.14 1020.4
13 19:53 Calm 10.00 Mostly Cloudy BKN120 91 71.1 97 91 52% 98 30.12 1019.6
13 18:53 SW 3 10.00 A Few Clouds FEW095 FEW120 91.9 70 49% 98 30.11 1019.5
13 17:53 SW 8 10.00 Overcast BKN065 OVC080 91.9 70 49% 98 30.11 1019.2
13 16:53 SE 3 10.00 Mostly Cloudy FEW070 BKN085 BKN110 93.9 66.9 41% 98 30.1 1019.1
13 15:53 Calm 10.00 A Few Clouds FEW065 96.1 68 40% 101 30.11 1019.2
13 14:53 Vrbl 6 10.00 A Few Clouds FEW060 96.1 68 40% 101 30.13 1019.9
13 13:53 Calm 10.00 NULL NULL 91.9 69.1 95 77 47% 97 30.15 1020.6
13 12:53 Vrbl 3 10.00 Mostly Cloudy BKN045 91 70 50% 97 30.17 1021.5
13 10:53 Vrbl 3 10.00 Fair CLR 87.1 71.1 59% 93 30.2 1022.2
13 09:53 Vrbl 5 10.00 Fair CLR 84 71.1 65% 89 30.19 1022.1
13 08:53 Calm 10.00 Fair CLR 81 73 77% 86 30.2 1022.2
13 07:53 Calm 10.00 Fair CLR 75.9 73 78.1 73.9 91% 76 30.18 1021.6
13 06:53 Calm 10.00 A Few Clouds FEW120 75 72 90% 74 30.16 1020.9
13 05:53 Calm 10.00 Fair CLR 75 72 90% 74 30.14 1020.3
13 03:53 Calm 10.00 Fair CLR 75.9 72 88% 76 30.11 1019.4
13 02:53 Calm 10.00 Fair CLR 75.9 72 88% 76 30.11 1019.4
13 01:53 Calm 10.00 Mostly Cloudy BKN008 78.1 72 86 77 82% 80 30.13 1019.9
13 00:53 Calm 10.00 Overcast OVC012 78.1 72 82% 80 30.14 1020.5
12 23:53 Calm 10.00 Mostly Cloudy BKN016 BKN110 78.1 72 82% 80 30.14 1020.3
Date Time (edt) Wind (mph) Vis. (mi.) Weather Sky Cond. Air Dwpt Max. Min. Relative Humidity Wind Chill (°F) Heat Index (°F) altimeter (in) sea level (mb) 1 hr 3 hr 6 hr
6 hour
Temperature (ºF) Pressure Precipitation (in)